Weather Service Report


813 
ASUS44 KLIX 110213
RWRLA 
LOUISIANA WEATHER ROUNDUP
NATIONAL WEATHER SERVICE NEW ORLEANS LA
800 PM CST SAT DEC 10 2016

NOTE: "FAIR" INDICATES FEW OR NO CLOUDS BELOW 12,000 FEET WITH NO
      SIGNIFICANT WEATHER AND/OR OBSTRUCTIONS TO VISIBILITY.
      SKY/WX - SKY CONDITION AND SIGNIFICANT WEATHER.
      TMP - AIR TEMPERATURE.    DP   - DEWPOINT TEMPERATURE.
      RH  - RELATIVE HUMIDITY.  PRES - PRESSURE.
      HX  - HEAT INDEX.         WCI  - WIND CHILL INDEX.

*  THESE STATIONS ARE NOT NWS OR FAA STATIONS AND ARE NOT UNDER
   NWS QUALITY CONTROL.

LAZ040-048-061>063-065-066-069-110300-
SOUTHEAST LOUISIANA
  
CITY           SKY/WX    TMP DP  RH WIND       PRES   REMARKS
N.O. AUDUBON   NOT AVBL                                               
N.O. INTL ARPT CLEAR     44  31  60 SE6       30.39S                  
N.O. LAKEFRONT CLEAR     46  33  60 SE6       30.40S                  
N.O. DOWNTOWN*   N/A     49  29  46 CALM      30.40S                  
RESERVE*       FAIR      42  36  79 CALM      30.38S                  
SLIDELL        CLEAR     37  34  89 CALM      30.38F                  
BATON ROUGE    CLEAR     40  31  70 E5        30.37S                  
BOOTHVILLE     CLEAR     49  39  68 NE6       30.39S                  
BELLE CHASSE   CLEAR     36  33  89 CALM      30.39F                  
BOGALUSA*      FAIR      37  32  84 CALM      30.41S                  
GALLIANO*      CLEAR     45  29  53 NE5       30.39S                  
NEW ROADS*     FAIR      41  32  69 CALM      30.37S                  
GONZALES*      FAIR      40  32  73 CALM      30.37S                  
HAMMOND*       CLEAR     36  32  87 CALM      30.38F                  
HOUMA*         CLEAR     42  28  56 SE3       30.39R                  
PORT FOURCHON* CLEAR     50  39  66 NE9       30.37F                  

$$

LAZ041-044-053-054-110300-
SOUTHWEST LOUISIANA
  
CITY           SKY/WX    TMP DP  RH WIND       PRES   REMARKS
LAKE CHARLES   PTCLDY    44  35  70 SE7       30.34F                  
LAFAYETTE      PTCLDY    46  35  65 CALM      30.37S                  
PATTERSON      CLEAR    N/A N/A N/A E5        30.38S                  
SALT POINT     NOT AVBL                                               
NEW IBERIA     CLEAR     44  26  49 SE5       30.38R                  
CHENAULT AIRPK CLEAR     41  34  75 E3        30.34F                  

$$

LAZ027-028-110300-
CENTRAL LOUISIANA
  
CITY           SKY/WX    TMP DP  RH WIND       PRES   REMARKS
FORT POLK      CLOUDY    47  31  53 E3        30.33S                  
ALEXANDRIA INT PTCLDY    42  28  57 E5        30.34F                  
ALEXANDRIA     CLEAR     35  32  88 CALM      30.35F                  

$$

LAZ001-002-110300-
NORTHWEST LOUISIANA
  
CITY           SKY/WX    TMP DP  RH WIND       PRES   REMARKS
SHREVEPORT     CLOUDY    50  29  44 SE10      30.29F                  
BARKSDALE AFB  CLOUDY    48  29  47 SE7       30.30F                  
DTN SHREVEPORT CLOUDY    50  28  42 SE7       30.31S                  

$$

LAZ014-016-110300-
NORTHEAST LOUISIANA
  
CITY           SKY/WX    TMP DP  RH WIND       PRES   REMARKS
MONROE         CLEAR     37  28  70 CALM      30.37S                  
TALLULAH       CLEAR     33  26  75 CALM      30.37F                  

$$

  


814 
ASUS44 KLIX 110213
RWRLIX
NEW ORLEANS REGIONAL WEATHER ROUNDUP
NATIONAL WEATHER SERVICE NEW ORLEANS LA
800 PM CST SAT DEC 10 2016

NOTE: "FAIR" INDICATES FEW OR NO CLOUDS BELOW 12,000 FEET WITH NO
      SIGNIFICANT WEATHER AND/OR OBSTRUCTIONS TO VISIBILITY.
      SKY/WX - SKY CONDITION AND SIGNIFICANT WEATHER.
      TMP - AIR TEMPERATURE.     DP    - DEWPOINT TEMPERATURE.
      RH  - RELATIVE HUMIDITY.   PRES  - PRESSURE.
      HI  - HEAT INDEX.          WCI   - WIND CHILL INDEX.

*  THESE STATIONS ARE NOT NWS OR FAA STATIONS AND ARE NOT UNDER
   NWS QUALITY CONTROL. 

LAZ038-040-048-061>063-065>067-069-110300-
SOUTHEAST LOUISIANA
  
CITY           SKY/WX    TMP DP  RH WIND       PRES   REMARKS
N.O. AUDUBON   NOT AVBL                                               
N.O. INTL ARPT CLEAR     44  31  60 SE6       30.39S                  
N.O. LAKEFRONT CLEAR     46  33  60 SE6       30.40S                  
N.O. DOWNTOWN*   N/A     49  29  46 CALM      30.40S                  
RESERVE*         N/A     42  36  79 CALM      30.38S                  
SLIDELL        CLEAR     37  34  89 CALM      30.38F                  
BATON ROUGE    CLEAR     40  31  70 E5        30.37S                  
BOOTHVILLE     CLEAR     49  39  68 NE6       30.39S                  
BELLE CHASSE   CLEAR     36  33  89 CALM      30.39F                  
BOGALUSA*        N/A     37  32  84 CALM      30.41S                  
GALLIANO*      CLEAR     45  29  53 NE5       30.39S                  
NEW ROADS*       N/A     41  32  69 CALM      30.37S                  
GONZALES*        N/A     40  32  73 CALM      30.37S                  
HAMMOND*       CLEAR     36  32  87 CALM      30.38F                  
HOUMA*         CLEAR     42  28  56 SE3       30.39R                  
PORT FOURCHON* CLEAR     50  39  66 NE9       30.37F                  

$$

MSZ070-080>082-110300-
SOUTHERN MISSISSIPPI
  
CITY           SKY/WX    TMP DP  RH WIND       PRES   REMARKS
MCCOMB         CLEAR     38  26  62 E3        30.37S                  
GULFPORT       CLEAR     40  33  76 CALM      30.39F                  
BILOXI         CLEAR     44  27  51 NE3       30.39S                  
PASCAGOULA     CLEAR     34  30  85 CALM      30.40S                  
STENNIS ARPT*  CLEAR     34  32  93 CALM      30.40F                  

$$

COASTAL OBSERVATIONS
LAKE AND NEARSHORE STATIONS
  
STATION/POSITION TIME  TEMP    WIND        PRES    WAVE
                       AIR SEA DIR/SP/G            HT/PER
                 (UTC) (F)     (DEG/KT/KT) (MB)    (FT/S)
PASCAGOULA       0148   45      30/  5/  7 1028.8
WAVELAND YACHT   0148          360/  2/  3   N/A
GRAND ISLE       0148   50 60   60/  9/ 12 1028.6
SOUTHWEST PASS   0148           30/ 13/ 14   N/A
NEW CANAL        0148   46 56  140/  2/  3 1028.1
SHELL BEACH      0148   50 54   90/  6/  7 1028.9

OFFSHORE STATIONS
  
STATION/POSITION TIME  TEMP    WIND        PRES    WAVE
                       AIR SEA DIR/SP/G            HT/PER
                 (UTC) (F)     (DEG/KT/KT) (MB)    (FT/S)
64 S DAUPHIN ISL 0130   58 74   70/ 12/ 14 1028.5

$$

  

Return to Home page


Western Regional Climate Center, wrcc@dri.edu